Location: Starry Hill Observatory
(46.8582°N, 122.3590°W)
Time: 23:02:21
(UTC-08:00)

ISS - Visible Passes

Search period start: 30 January 2015 00:00
Search period end: 09 February 2015 00:00
Orbit: 400 x 408 km, 51.6° (Epoch: 30 January)

Date Brightness Start Highest point End Pass type
(mag) Time Alt. Az. Time Alt. Az. Time Alt. Az.
04 Feb -1.0 18:38:05 10° SSE 18:39:06 12° SE 18:39:06 12° SE visible
05 Feb -1.8 19:19:55 10° SW 19:21:52 29° SSW 19:21:52 29° SSW visible
06 Feb -1.9 18:27:57 10° SSW 18:30:40 25° SE 18:31:51 20° ESE visible
06 Feb -0.4 20:03:40 10° WSW 20:04:31 17° WSW 20:04:31 17° WSW visible
07 Feb -3.5 19:11:08 10° WSW 19:14:22 83° SSE 19:14:22 83° SSE visible
08 Feb -2.9 18:18:43 10° SW 18:21:52 50° SSE 18:24:08 17° ENE visible
08 Feb -0.9 19:55:15 10° W 19:56:47 23° WNW 19:56:47 23° WNW visible
